Карточка аэропорта UMMS

Внимание!
Информация на этой странице в стадии наполнения.
Если вы не увидели какой-то информации, или заметили неточность - пожалуйста сообщите нам!
Спасибо!
Команда XR-STAFF
Название аэропортаMinsk 2
Название аэропорта (англ.)Minsk 2
Превышение681 ft. (207.6 m.)
Координаты53°52.95', 28°1.848'
Высота перехода6000 ft
Эшелон переходаQNH>=733mm:FL80; QNH<733mm:FL90
Коды ответчика0020−0027; 6230-6277
Зона ОрВДМинск РПИ (UMMV)
Данные METARUMMS 232000Z 32002MPS CAVOK 07/04 Q1011 NOSIG
Проноз погоды (TAF)UMMS 231702Z 2318/2418 VRB02MPS CAVOK
NOTAMshow/hide NOTAM
AWOS   TABLE

Информация о ВПП

ВПП Длина ВПП (м.) Покрытие Курс ВПП Частота ILS
13L3700Цементобетон130110.7
13R3641Цементобетон130 
31L3641Цементобетон310 
31R3700Цементобетон310110.1

Диспетчерские позиции

Позывной Наименование органа УВД Частота
UMMS_APPMinsk Approach125.900
UMMS_R_APPMinsk Radar125.250
UMMS_TWRMinsk Tower130.400
UMMS_GNDMinsk Ground129.950



Спутниковое изображение